STARLINK-4708

decayed
NORAD ID: 53776 Int'l Des: 2022-111 Owner: SPXS Country: US Constellation: starlink
LEOCIRCULAR
Gruppe

Über STARLINK-4708

Beschreibung wird geladen...

Höhenverlauf

Altitude vs Time

uPlot chart will show altitude changes over time

Zweizeiliger Elementsatz

1 53776U 22111D 25205.45034891 .11454587 11978-4 32414-2 0 9994
2 53776 53.2031 191.0169 0001864 245.4026 245.8580 16.26950342158816
Epoch: 24. Juli 2025 • Age: 1127 hours

Aktueller Status

Position data unavailable
Startdatum 11. Sept. 2022
Alter 2.9 years
Verglühungsdatum 24. Juli 2025
Typ internet

Technische Details

Klassifizierung Payload
Masse 305.00 kg
Trockenmasse 290.00 kg
Gesamtmasse 305.00 kg
Länge 0.20 m
Durchmesser 2.80 m
Spannweite 9.00 m
Form Box + pan
Hersteller SPXS
Bus-Typ Starlink
Phasenstatus Reentered
Besitzer/Staat SPXS/US

Große Konstellationen

Loading constellations...